Location: ????????
(55.0808°N, 38.5463°E)
Time: 02:32:31
(UTC+00:00)

Nimbus 3 Rocket - Pass Details

Date: 26 September 2024
Orbit: 1072 x 1131 km, 99.9° (Epoch: 03 October)

Event Time Altitude Azimuth Distance (km) Brightness Sun altitude
Rises 22:58:43 0° 17° (NNE) 3,909 9.2 -32.8°
Reaches altitude 10° 23:01:24 10° 11° (N) 2,942 8.2 -32.6°
Enters shadow 23:07:20 41° 308° (NW) 1,512 5.9 -32.1°
